Probability
0 0 0 0 0 0 0 0 0 0 0 0 0 0 0 0 0 0 0 0 0 0 0 0 0 0 0 0 0 0 0 0 0 0 0 0 0 0 0 0 0 0 0 0
0 0 0 0 0 0 0 0 0 0 0 0 0 0 0 0 0 0 0 0 0 0 0 0 0 0 0 0 0 0 0 0 0 0 0 0 0 0 0 0 0 0 0 0
0 0 0 0 0 0 0 0 0 0 0 0 0 0 0 0 0 0 0 0 0 0 0 0 0 0 0 0 0 0 0 0 0 0 0 0 0 0 0 0 0 0 0 0
0 0 0 0 0 0 0 0 0 0 0 0 0 0 0 0 0 0 0 0 0 0 0 0 0 0 0 0 0 0 0 0 0 0 0 0 0 0 0 0 0 0 0 0
0 0 0 0 0 0 0 0 0 0 0 0 0 0 0 0 0 0 0 0 0 0 0 0 0 0 0 0 0 0 0 0 0 0 0 0 0 0 0 0 0 0 0 0
0 0 0 0 0 0 0 0 0 0 0 0 0 0 0 0 0 0 0 0 0 0 0 0 0 0 0 0 0 0 0 0 0 0 0 0 0 0 0 0 0 0 0 0
0 0 0 0 0 0 0 0 0 0 0 0 0 0 0 0 0 0 0 0 0 0 0 0 0 0 0 0 0 0 0 0 0 0 0 0 0 0 0 0 0 0 0 0
0 0 0 0 0 0 0 0 0 0 0 0 0 0 0 0 0 0 0 0 0 0 0 0 0 0 0 0 0 0 0 0 0 0 0 0 0 0 0 0 0 0 0 0
0 0 0 0 0 0 0 0 0 0 0 0 0 0 0 0 0 0 0 0 0 0 0 0 0 0 0 0 0 0 0 0 0 0 0 0 0 0 0 0 0 0 0 0
0 0 0 0 0 0 0 0 0 0 0 0 0 0 0 0 0 0 0 0 0 0 0 0 0 0 0 0 0 0 0 0 0 0 0 0 0 0 0 0 0 0 0 0
0 0 0 0 0 0 0 0 0 0 0 0 0 0 0 0 0 0 0 0 0 0 0 0 0 0 0 0 0 0 0 0 0 0 0 0 0 0 0 0 0 0 0 0
0 0 0 0 0 0 0 0 0 0 0 0 0 0 0 0 0 0 0 0 0 0 0 0 0 0 0 0 0 0 0 0 0 0 0 0 0 0 0 0 0 0 0 0
0 0 0 0 0 0 0 0 0 0 0 0 0 0 0 0 0 0 0 0 0 0 0 0 0 0 0 0 0 0 0 0 0 0 0 0 0 0 0 0 0 0 0 0
0 0 0 0 0 0 0 0 0 0 0 0 0 0 0 0 0 0 0 0 0 0 0 0 0 0 0 0 0 0 0 0 0 0 0 0 0 0 0 0 0 0 0 0
0 0 0 0 0 0 0 0 0 0 0 0 0 0 0 0 0 0 0 0 0 0 0 0 0 0 0 0 0 0 0 0 0 0 0 0 0 0 0 0 0 0 0 0
0 0 0 0 0 0 0 0 0 0 0 0 0 0 0 0 0 0 0 0 0 0 0 0 0 0 0 0 0 0 0 0 0 0 0 0 0 0 0 0 0 0 0 0
0 0 0 0 0 0 0 0 0 0 0 0 0 0 0 0 0 0 0 0 0 0 0 0 0 0 0 0 0 0 0 0 0 0 0 0 0 0 0 0 0 0 0 0
0 0 0 0 0 0 0 0 0 0 0 0 0 0 0 0 0 0 0 0 0 0 0 0 0 0 0 0 0 0 0 0 0 0 0 0 0 0 0 0 0 0 0 0
0 0 0 0 0 0 0 0 0 0 0 0 0 0 0 0 0 0 0 0 0 0 0 0 0 0 0 0 0 0 0 0 0 0 0 0 0 0 0 0 0 0 0 0
0 0 0 0 0 0 0 0 0 0 0 0 0 0 0 0 0 0 0 0 0 0 0 0 0 0 0 0 0 0 0 0 0 0 0 0 0 0 0 0 0 0 0 0
0 0 0 0 0 0 0 0 0 0 0 0 0 0 0 0 0 0 0 0 0 0 0 0 0 0 0 0 0 0 0 0 0 0 0 0 0 0 0 0 0 0 0 0
0 0 0 0 0 0 0 0 0 0 0 0 0 0 0 0 0 0 0 0 0 0 0 0 0 0 0 0 0 0 0 0 0 0 0 0 0 0 0 0 0 0 0 0
0 0 0 0 0 0 0 0 0 0 0 0 0 0 0 0 0 0 0 0 0 0 0 0 0 0 0 0 0 0 0 0 0 0 0 0 0 0 0 0 0 0 0 0
0 0 0 0 0 0 0 0 0 0 0 0 0 0 0 0 0 0 0 0 0 0 0 0 0 0 0 0 0 0 0 0 0 0 0 0 0 0 0 0 0 0 0 0
0 0 0 0 0 0 0 0 0 0 0 0 0 0 0 0 0 0 0 0 0 0 0 0 0 0 0 0 0 0 0 0 0 0 0 0 0 0 0 0 0 0 0 0
0 0 0 0 0 0 0 0 0 0 0 0 0 0 0 0 0 0 0 0 0 0 0 0 0 0 0 0 0 0 0 0 0 0 0 0 0 0 0 0 0 0 0 0
0 0 0 0 0 0 0 0 0 0 0 0 0 0 0 0 0 0 0 0 0 0 0 0 0 0 0 0 0 0 0 0 0 0 0 0 0 0 0 0 0 0 0 0
Wind_Speed
2 2 5 6 8 12 12 10 8 7 8 8 9 10 9 8 8 8 8 7 7 7 5 5 4 3 3 3 3 3 4 4 4 4 5 5 5 6 6 7 8 7 8 8
1 2 3 4 8 12 14 12 10 6 8 7 6 6 6 8 10 9 9 8 8 7 7 6 5 4 3 3 2 3 4 4 4 4 5 5 5 6 7 7 7 8 8 8
2 1 1 8 12 14 10 9 11 14 11 3 5 9 10 10 10 10 9 9 9 8 7 6 5 5 4 4 3 4 4 4 4 4 5 5 6 6 6 7 7 8 8 8
2 1 8 9 4 8 11 11 10 8 7 8 8 7 6 8 10 9 9 9 9 8 7 6 5 5 5 4 4 4 4 3 3 4 5 5 5 6 6 6 6 6 6 6
3 3 8 9 4 6 7 8 11 13 8 7 5 3 2 4 6 8 9 8 8 8 7 6 6 6 6 5 4 4 4 3 3 4 4 4 5 5 4 4 5 4 4 5
3 3 7 6 3 3 4 6 6 11 11 8 8 6 6 5 5 6 7 8 8 8 6 7 6 7 7 6 5 4 4 3 3 4 4 4 4 3 3 3 3 3 3 3
3 4 8 7 2 4 3 7 4 5 8 9 9 6 4 7 6 6 7 8 9 8 7 7 7 7 7 6 5 4 4 4 4 4 4 4 3 2 3 2 2 1 1 1
5 6 9 4 4 5 6 2 1 2 4 6 5 5 6 7 7 8 7 7 8 8 7 6 7 8 7 6 5 5 5 4 4 4 3 3 3 2 2 2 2 1 0 1
8 9 6 3 6 4 3 2 1 2 3 6 5 5 6 6 7 8 8 8 8 7 7 6 7 8 8 7 6 6 6 5 4 4 3 3 4 3 2 2 2 1 1 1
4 7 5 5 4 2 3 3 2 3 4 5 5 5 5 5 7 8 8 8 8 8 8 8 8 8 7 7 7 7 6 5 5 4 3 3 3 3 3 3 2 2 2 2
5 5 4 4 4 3 2 2 3 3 3 4 5 4 5 5 7 8 8 8 9 10 10 9 8 8 8 8 9 7 6 6 5 5 4 4 3 3 3 3 4 4 3 2
6 4 3 5 4 2 3 4 4 4 3 2 3 4 4 5 5 6 8 8 9 10 10 9 9 9 9 9 10 9 7 6 5 4 4 4 3 2 4 4 4 5 6 5
4 3 3 4 3 1 3 3 3 3 3 2 1 2 3 3 4 5 6 9 11 11 10 10 10 10 10 10 10 10 8 7 5 5 5 5 4 4 3 3 4 5 5 5
4 1 2 3 3 1 1 2 3 3 2 1 1 1 1 2 2 4 6 8 8 8 9 9 10 11 10 11 11 10 8 9 8 6 5 5 5 4 4 3 2 3 4 6
5 3 4 3 1 0 1 2 3 2 1 2 1 1 1 2 3 4 5 4 5 7 8 9 10 10 9 10 11 10 8 6 6 5 5 5 4 4 4 4 3 3 2 3
5 2 0 1 2 1 1 2 2 1 1 1 2 2 2 3 3 3 3 3 5 7 8 8 9 8 9 10 10 8 7 11 9 6 5 5 4 4 4 4 4 3 3 3
2 2 1 2 2 1 1 2 2 1 1 2 2 3 3 3 3 3 3 3 4 5 6 7 7 6 8 9 9 7 6 8 12 7 6 5 5 5 5 4 4 4 4 5
2 1 1 1 1 1 1 2 2 1 1 2 3 3 2 2 3 4 4 3 2 2 3 4 4 5 7 8 7 6 6 6 6 6 6 5 5 5 4 5 5 5 4 4
3 3 3 3 2 2 2 2 2 2 3 3 3 3 2 2 3 3 3 1 2 3 3 3 6 6 6 8 8 5 6 7 6 5 5 7 6 5 5 5 5 5 4 4
4 4 4 4 4 3 3 2 3 2 3 3 3 3 3 4 4 3 2 2 2 2 2 2 3 4 5 6 9 5 6 7 7 6 5 5 5 5 5 5 5 5 5 5
4 4 4 4 4 4 4 3 3 3 3 4 3 3 3 4 4 3 2 2 3 2 2 3 2 2 4 5 8 5 6 6 6 6 6 6 6 6 6 6 6 5 5 5
3 3 4 3 3 3 3 3 3 3 3 3 4 4 3 4 4 3 2 2 3 4 2 1 1 4 5 6 5 5 6 6 6 5 6 6 6 6 6 6 6 5 5 4
2 3 3 3 2 2 2 3 3 3 3 3 3 4 4 3 3 2 3 3 3 5 3 2 3 5 7 5 4 5 6 6 6 6 6 6 6 6 5 6 5 5 5 5
2 2 2 2 2 1 2 3 3 2 3 2 3 3 3 3 3 2 3 6 8 6 3 4 5 6 6 3 4 4 5 5 5 5 5 5 5 5 5 5 5 5 5 5
3 3 3 2 2 2 2 2 2 3 3 2 3 3 3 2 2 3 4 5 7 6 3 4 5 5 2 2 4 4 5 5 5 5 5 5 5 5 5 5 5 5 5 5
4 3 3 3 3 2 2 2 2 2 2 3 3 3 3 3 3 3 3 4 5 6 3 2 3 3 1 2 3 4 4 5 6 5 5 5 5 5 5 5 6 5 5 5
4 4 3 3 3 3 2 2 2 2 2 2 3 3 3 3 3 4 4 4 4 3 3 2 2 1 1 2 2 3 3 4 4 4 4 5 5 5 5 6 5 4 4 4
Wind_Direction
229 187 162 193 198 196 204 207 203 221 219 226 208 190 182 174 166 165 169 171 169 164 161 152 141 128 116 97 74 72 70 62 54 47 47 48 47 46 46 47 48 44 45 42
302 232 202 234 223 212 216 218 224 240 249 241 213 182 175 175 174 180 186 182 173 166 164 161 156 145 129 114 98 89 82 71 62 60 58 56 56 55 55 53 51 51 49 46
260 286 1 260 223 211 210 209 202 223 231 221 183 186 189 188 188 191 188 180 174 170 166 163 160 148 140 131 114 100 92 83 75 73 68 62 63 61 57 54 53 53 48 46
163 105 242 246 231 202 216 227 210 219 212 202 204 201 195 188 189 193 182 174 169 161 157 156 150 141 134 128 118 109 102 95 91 88 82 76 71 67 61 59 57 55 49 42
166 235 275 284 250 184 194 248 220 217 211 204 193 143 242 213 192 187 174 162 158 156 153 152 150 145 137 130 126 125 121 116 105 99 97 91 85 77 70 72 66 56 49 43
188 230 253 263 285 170 136 268 242 208 201 179 153 178 229 195 161 147 140 142 145 145 144 153 156 148 144 145 149 151 142 128 117 115 115 112 107 98 88 88 85 75 55 36
202 246 266 260 246 115 177 256 297 201 185 170 181 194 178 144 139 139 138 143 147 151 157 164 158 153 154 158 167 158 142 135 131 131 133 132 127 123 123 118 109 92 64 6
184 220 255 254 149 187 225 273 354 121 152 156 155 129 135 145 146 148 147 150 156 160 166 165 162 160 165 175 170 156 150 149 151 156 158 150 147 147 149 151 148 162 152 327
198 220 242 222 210 228 199 187 164 110 117 126 131 151 157 162 163 165 165 167 166 168 170 173 174 173 179 182 168 161 161 167 167 166 169 165 169 174 175 179 183 202 205 231
248 261 261 255 243 243 204 188 157 133 132 136 148 165 170 172 176 178 179 178 174 173 182 189 188 187 186 175 171 168 175 178 175 171 171 171 177 177 175 181 188 199 207 221
253 272 302 289 246 230 215 165 139 128 145 155 155 173 184 187 190 190 188 185 183 189 196 197 191 193 187 177 173 177 183 184 181 179 171 172 178 188 184 201 194 192 202 205
236 236 227 258 269 249 202 191 174 156 145 141 165 185 190 200 198 193 192 188 191 197 201 199 194 197 191 183 179 179 184 187 183 177 175 174 174 195 226 212 213 200 197 200
253 284 263 274 294 274 192 180 159 154 159 163 172 188 195 207 207 201 198 195 200 203 203 197 196 200 194 186 184 187 189 186 182 180 180 181 183 188 211 247 246 239 238 240
298 311 288 272 265 290 148 128 112 97 91 114 169 198 201 214 215 214 215 211 205 201 200 197 199 204 193 185 187 191 190 190 187 186 184 186 191 195 198 205 229 259 264 260
302 280 244 251 234 171 113 110 102 87 52 34 31 1 268 248 245 241 236 219 201 201 203 200 205 205 185 184 188 190 188 188 186 182 183 186 187 189 196 205 213 230 248 271
308 328 298 199 193 169 132 123 124 109 35 9 354 323 298 277 269 266 251 212 200 211 209 205 211 200 182 184 186 188 190 191 181 179 181 183 185 191 198 205 214 223 233 239
290 289 263 226 209 190 153 130 122 97 13 341 322 316 312 306 295 286 276 249 228 226 214 209 209 187 182 185 185 186 182 186 185 183 186 187 189 197 201 204 213 225 233 239
297 297 286 228 181 154 117 84 70 48 358 330 326 323 312 296 284 282 280 275 258 254 238 219 199 182 186 186 184 179 179 181 183 186 185 188 193 198 201 208 217 228 236 250
11 26 33 44 61 97 85 51 29 20 2 351 343 328 315 306 300 297 294 273 249 259 260 229 201 186 188 191 181 177 179 182 184 184 182 198 201 199 206 213 221 226 232 237
15 22 29 38 42 49 49 30 23 22 8 0 358 356 348 334 326 321 311 274 260 264 258 217 197 192 191 191 186 181 184 186 187 185 185 193 199 205 212 218 223 229 232 236
12 19 27 35 40 37 30 20 17 15 9 13 16 1 342 335 338 337 331 308 312 308 281 232 201 194 189 192 193 186 186 186 188 189 193 199 205 210 215 221 226 230 232 237
2 9 15 18 24 23 14 14 13 11 11 11 8 359 352 348 345 339 324 307 313 314 304 244 218 211 207 200 189 187 190 191 193 193 196 201 206 213 218 220 225 230 232 235
346 350 354 356 354 350 359 5 1 0 359 357 354 350 342 331 329 332 325 326 320 317 315 264 254 239 224 201 187 191 194 195 196 200 203 206 210 213 217 220 224 228 232 237
293 305 315 326 332 339 339 336 339 341 340 339 341 341 337 333 330 321 300 314 321 319 305 284 277 259 235 191 185 192 196 199 202 206 207 209 211 212 216 221 227 230 233 240
262 269 271 275 274 272 282 303 319 332 339 334 331 334 334 321 304 306 311 313 321 323 309 296 289 276 243 185 192 199 201 205 208 206 208 209 212 215 219 222 226 231 235 239
243 250 252 249 248 253 260 273 288 299 312 318 316 315 321 319 315 313 314 316 320 324 319 296 293 281 227 198 205 208 209 218 226 219 211 212 216 219 223 226 230 232 236 240
245 245 249 254 248 236 237 244 258 275 283 289 295 302 312 317 319 321 322 322 323 322 314 307 301 289 248 219 217 218 217 216 218 217 213 214 216 220 225 228 231 233 236 242